Time,TemperatureF,DewpointF,PressureIn,WindDirection,WindDirectionDegrees,WindSpeedMPH,WindSpeedGustMPH,Humidity,HourlyPrecipIn,Conditions,Clouds,dailyrainin,SoftwareType,DateUTC
2013-03-22 00:04:00,65.3,55.2,28.61,SSW,205,3.2,4.9,70,0.00,,,0.00,WSDL version 420,2013-03-22 05:04:00,
2013-03-22 00:09:00,65.3,55.3,28.61,South,188,2.6,4.9,70,0.00,,,0.00,WSDL version 420,2013-03-22 05:09:00,
2013-03-22 00:14:00,65.3,55.3,28.61,South,185,2.7,4.7,70,0.00,,,0.00,WSDL version 420,2013-03-22 05:14:00,
2013-03-22 00:19:00,65.3,55.5,28.61,South,183,2.7,5.4,70,0.00,,,0.00,WSDL version 420,2013-03-22 05:19:00,
2013-03-22 00:24:00,65.3,55.6,28.61,South,190,3.3,5.4,71,0.00,,,0.00,WSDL version 420,2013-03-22 05:24:00,
2013-03-22 00:29:00,65.4,55.7,28.61,South,185,3.8,5.4,71,0.00,,,0.00,WSDL version 420,2013-03-22 05:29:00,
2013-03-22 00:34:00,65.5,55.8,28.61,South,188,2.5,5.4,71,0.00,,,0.00,WSDL version 420,2013-03-22 05:34:00,
2013-03-22 00:39:00,65.5,55.9,28.59,SSW,213,2.5,4.3,72,0.00,,,0.00,WSDL version 420,2013-03-22 05:39:00,
2013-03-22 00:44:00,65.5,56.0,28.59,South,174,3.4,6.5,72,0.00,,,0.00,WSDL version 420,2013-03-22 05:44:00,
2013-03-22 00:49:00,65.5,56.2,28.59,SW,218,3.2,6.5,72,0.00,,,0.00,WSDL version 420,2013-03-22 05:49:00,
2013-03-22 00:54:00,65.5,56.2,28.61,South,186,3.0,5.6,72,0.00,,,0.00,WSDL version 420,2013-03-22 05:54:00,
2013-03-22 00:59:00,65.5,56.2,28.61,SSW,195,2.8,4.7,72,0.00,,,0.00,WSDL version 420,2013-03-22 05:59:00,
2013-03-22 01:04:00,65.5,56.3,28.61,SSW,208,2.7,5.4,72,0.00,,,0.00,WSDL version 420,2013-03-22 06:04:00,
2013-03-22 01:09:00,65.5,56.2,28.61,SW,236,2.9,5.4,72,0.00,,,0.00,WSDL version 420,2013-03-22 06:09:00,
2013-03-22 01:14:00,65.5,56.3,28.61,South,191,3.2,4.9,72,0.00,,,0.00,WSDL version 420,2013-03-22 06:14:00,
2013-03-22 01:19:00,65.5,56.2,28.61,SSE,158,2.5,4.9,72,0.00,,,0.00,WSDL version 420,2013-03-22 06:19:00,
2013-03-22 01:24:00,65.5,56.2,28.61,SSW,208,2.6,4.3,72,0.00,,,0.00,WSDL version 420,2013-03-22 06:24:00,
2013-03-22 01:29:00,65.5,56.5,28.61,South,177,1.7,5.6,73,0.00,,,0.00,WSDL version 420,2013-03-22 06:29:00,
2013-03-22 01:34:00,65.5,56.2,28.61,SSW,205,2.2,5.6,72,0.00,,,0.00,WSDL version 420,2013-03-22 06:34:00,
2013-03-22 01:39:00,65.5,56.5,28.59,South,170,2.4,3.4,73,0.00,,,0.00,WSDL version 420,2013-03-22 06:39:00,
2013-03-22 01:44:00,65.5,56.5,28.59,SSW,195,2.3,3.6,72,0.00,,,0.00,WSDL version 420,2013-03-22 06:44:00,
2013-03-22 01:49:00,65.5,56.7,28.59,SSW,203,2.6,3.6,74,0.00,,,0.00,WSDL version 420,2013-03-22 06:49:00,
2013-03-22 01:54:00,65.5,56.8,28.59,SSW,195,2.6,4.0,73,0.00,,,0.00,WSDL version 420,2013-03-22 06:54:00,
2013-03-22 01:59:00,65.5,56.6,28.59,South,185,2.9,5.6,73,0.00,,,0.00,WSDL version 420,2013-03-22 06:59:00,
2013-03-22 02:04:00,65.5,56.8,28.59,South,183,2.5,5.6,74,0.00,,,0.00,WSDL version 420,2013-03-22 07:04:00,
2013-03-22 02:09:00,65.5,57.0,28.59,SSW,193,2.1,4.7,74,0.00,,,0.00,WSDL version 420,2013-03-22 07:09:00,
2013-03-22 02:14:00,65.5,57.1,28.59,SSW,205,2.6,4.7,74,0.00,,,0.00,WSDL version 420,2013-03-22 07:14:00,
2013-03-22 02:19:00,65.6,57.1,28.59,SSW,205,2.3,5.4,74,0.00,,,0.00,WSDL version 420,2013-03-22 07:19:00,
2013-03-22 02:24:00,65.6,57.0,28.61,South,183,2.1,5.4,74,0.00,,,0.00,WSDL version 420,2013-03-22 07:24:00,
2013-03-22 02:29:00,65.5,56.8,28.61,SSE,155,2.0,3.1,73,0.00,,,0.00,WSDL version 420,2013-03-22 07:29:00,
2013-03-22 02:34:00,65.7,57.1,28.61,South,190,1.8,3.8,75,0.00,,,0.00,WSDL version 420,2013-03-22 07:34:00,
2013-03-22 02:39:00,65.7,57.3,28.61,SSW,200,1.4,3.8,74,0.00,,,0.00,WSDL version 420,2013-03-22 07:39:00,
2013-03-22 02:44:00,65.7,56.9,28.61,SSW,213,2.2,4.7,74,0.00,,,0.00,WSDL version 420,2013-03-22 07:44:00,
2013-03-22 02:49:00,65.7,57.2,28.61,SSW,195,1.4,4.7,74,0.00,,,0.00,WSDL version 420,2013-03-22 07:49:00,
2013-03-22 02:54:00,65.7,57.3,28.61,South,191,1.4,3.8,75,0.00,,,0.00,WSDL version 420,2013-03-22 07:54:00,
2013-03-22 02:59:00,65.7,57.2,28.61,SE,133,1.7,3.4,74,0.00,,,0.00,WSDL version 420,2013-03-22 07:59:00,
2013-03-22 03:04:00,65.7,57.4,28.61,South,190,1.8,3.4,74,0.00,,,0.00,WSDL version 420,2013-03-22 08:04:00,
2013-03-22 03:09:00,65.7,57.4,28.61,SSW,210,1.8,3.1,75,0.00,,,0.00,WSDL version 420,2013-03-22 08:09:00,
2013-03-22 03:14:00,65.8,57.9,28.61,SSW,203,2.4,3.6,76,0.00,,,0.00,WSDL version 420,2013-03-22 08:14:00,
2013-03-22 03:19:00,65.8,58.1,28.61,SW,218,2.0,3.8,76,0.00,,,0.00,WSDL version 420,2013-03-22 08:19:00,
2013-03-22 03:24:00,65.8,58.1,28.61,South,191,2.0,4.0,76,0.00,,,0.00,WSDL version 420,2013-03-22 08:24:00,
2013-03-22 03:29:00,65.9,58.3,28.61,SSW,196,2.0,4.0,77,0.00,,,0.00,WSDL version 420,2013-03-22 08:29:00,
2013-03-22 03:34:00,66.0,58.6,28.61,SSW,200,2.5,4.0,77,0.00,,,0.00,WSDL version 420,2013-03-22 08:34:00,
2013-03-22 03:39:00,66.0,58.6,28.59,SSW,208,3.0,5.6,77,0.00,,,0.00,WSDL version 420,2013-03-22 08:39:00,
2013-03-22 03:44:00,66.0,58.6,28.59,SSW,205,2.5,5.6,77,0.00,,,0.00,WSDL version 420,2013-03-22 08:44:00,
2013-03-22 03:49:00,66.0,58.6,28.59,SSW,197,2.1,4.3,77,0.00,,,0.00,WSDL version 420,2013-03-22 08:49:00,
2013-03-22 03:54:00,66.0,58.7,28.59,South,188,2.7,4.3,77,0.00,,,0.00,WSDL version 420,2013-03-22 08:54:00,
2013-03-22 03:59:00,66.0,58.7,28.59,South,186,2.4,4.3,77,0.00,,,0.00,WSDL version 420,2013-03-22 08:59:00,
2013-03-22 04:04:00,66.0,58.8,28.59,SW,217,2.9,4.3,78,0.00,,,0.00,WSDL version 420,2013-03-22 09:04:00,
2013-03-22 04:09:00,66.0,58.6,28.59,SSW,200,2.1,4.3,77,0.00,,,0.00,WSDL version 420,2013-03-22 09:09:00,
2013-03-22 04:14:00,66.0,58.7,28.59,SSE,163,1.7,3.6,77,0.00,,,0.00,WSDL version 420,2013-03-22 09:14:00,
2013-03-22 04:19:00,66.0,58.6,28.59,South,186,2.0,3.4,77,0.00,,,0.00,WSDL version 420,2013-03-22 09:19:00,
2013-03-22 04:24:00,66.0,58.6,28.61,SW,214,2.2,4.3,77,0.00,,,0.00,WSDL version 420,2013-03-22 09:24:00,
2013-03-22 04:29:00,66.0,58.6,28.61,South,191,1.4,4.3,77,0.00,,,0.00,WSDL version 420,2013-03-22 09:29:00,
2013-03-22 04:34:00,65.9,58.5,28.61,SW,215,1.0,3.4,76,0.00,,,0.00,WSDL version 420,2013-03-22 09:34:00,
2013-03-22 04:39:00,65.8,58.6,28.59,South,175,2.2,3.4,78,0.00,,,0.00,WSDL version 420,2013-03-22 09:39:00,
2013-03-22 04:44:00,65.9,58.5,28.59,South,191,1.8,3.8,77,0.00,,,0.00,WSDL version 420,2013-03-22 09:44:00,
2013-03-22 04:49:00,65.9,58.6,28.59,South,191,1.8,3.8,78,0.00,,,0.00,WSDL version 420,2013-03-22 09:49:00,
2013-03-22 04:54:00,66.0,58.6,28.59,SE,125,2.0,3.1,77,0.00,,,0.00,WSDL version 420,2013-03-22 09:54:00,
2013-03-22 04:59:00,66.0,58.9,28.59,SSW,200,1.8,3.1,78,0.00,,,0.00,WSDL version 420,2013-03-22 09:59:00,
2013-03-22 05:04:00,65.9,58.7,28.59,SSW,208,1.9,3.8,77,0.00,,,0.00,WSDL version 420,2013-03-22 10:04:00,
2013-03-22 05:09:00,65.8,58.6,28.59,South,177,1.5,3.8,78,0.00,,,0.00,WSDL version 420,2013-03-22 10:09:00,
2013-03-22 05:14:00,65.8,58.7,28.59,SSW,200,2.0,2.7,78,0.00,,,0.00,WSDL version 420,2013-03-22 10:14:00,
2013-03-22 05:19:00,65.8,58.6,28.59,SW,220,1.5,3.1,77,0.00,,,0.00,WSDL version 420,2013-03-22 10:19:00,
2013-03-22 05:24:00,65.8,58.8,28.59,South,188,2.1,3.1,78,0.00,,,0.00,WSDL version 420,2013-03-22 10:24:00,
2013-03-22 05:29:00,65.8,59.0,28.59,South,183,2.0,4.7,78,0.00,,,0.00,WSDL version 420,2013-03-22 10:29:00,
2013-03-22 05:34:00,65.8,58.9,28.59,SW,219,1.7,4.7,79,0.00,,,0.00,WSDL version 420,2013-03-22 10:34:00,
2013-03-22 05:39:00,65.8,59.0,28.61,SSW,200,1.6,3.6,78,0.00,,,0.00,WSDL version 420,2013-03-22 10:39:00,
2013-03-22 05:44:00,65.8,58.8,28.61,SSE,163,1.4,2.9,78,0.00,,,0.00,WSDL version 420,2013-03-22 10:44:00,
2013-03-22 05:49:00,65.8,59.0,28.61,South,180,2.0,2.9,78,0.00,,,0.00,WSDL version 420,2013-03-22 10:49:00,
2013-03-22 05:54:00,65.8,59.2,28.61,SW,223,1.7,2.9,79,0.00,,,0.00,WSDL version 420,2013-03-22 10:54:00,
2013-03-22 05:59:00,65.8,59.2,28.61,SSW,208,2.1,3.6,79,0.00,,,0.00,WSDL version 420,2013-03-22 10:59:00,
2013-03-22 06:04:00,65.9,59.1,28.61,SW,228,1.5,3.6,79,0.00,,,0.00,WSDL version 420,2013-03-22 11:04:00,
2013-03-22 06:09:00,65.9,59.2,28.61,SSW,200,2.2,3.4,79,0.00,,,0.00,WSDL version 420,2013-03-22 11:09:00,
2013-03-22 06:14:00,66.0,59.3,28.61,SSW,213,1.6,3.4,79,0.00,,,0.00,WSDL version 420,2013-03-22 11:14:00,
2013-03-22 06:19:00,66.0,59.3,28.61,South,176,1.8,3.1,79,0.00,,,0.00,WSDL version 420,2013-03-22 11:19:00,
2013-03-22 06:24:00,66.0,59.3,28.61,South,191,1.8,3.1,79,0.00,,,0.00,WSDL version 420,2013-03-22 11:24:00,
2013-03-22 06:29:00,66.0,59.3,28.61,SSW,193,1.4,3.1,79,0.00,,,0.00,WSDL version 420,2013-03-22 11:29:00,
2013-03-22 06:34:00,65.9,59.3,28.61,SSW,212,1.8,2.7,79,0.00,,,0.00,WSDL version 420,2013-03-22 11:34:00,
2013-03-22 06:39:00,65.9,59.2,28.61,SSW,195,2.3,3.6,79,0.00,,,0.00,WSDL version 420,2013-03-22 11:39:00,
2013-03-22 06:44:00,65.9,59.2,28.61,SSW,197,1.9,3.6,79,0.00,,,0.00,WSDL version 420,2013-03-22 11:44:00,
2013-03-22 06:49:00,66.0,59.3,28.61,SSW,198,2.0,3.4,79,0.00,,,0.00,WSDL version 420,2013-03-22 11:49:00,
2013-03-22 06:54:00,66.0,59.5,28.61,SSW,213,1.5,3.4,79,0.00,,,0.00,WSDL version 420,2013-03-22 11:54:00,
2013-03-22 06:59:00,66.0,59.4,28.61,SW,214,1.6,2.9,80,0.00,,,0.00,WSDL version 420,2013-03-22 11:59:00,
2013-03-22 07:04:00,65.8,59.2,28.61,South,183,1.4,2.9,79,0.00,,,0.00,WSDL version 420,2013-03-22 12:04:00,
2013-03-22 07:09:00,65.8,59.2,28.61,SSW,194,2.1,4.5,80,0.00,,,0.00,WSDL version 420,2013-03-22 12:09:00,
2013-03-22 07:14:00,65.8,59.3,28.61,SW,220,1.3,4.5,79,0.00,,,0.00,WSDL version 420,2013-03-22 12:14:00,
2013-03-22 07:19:00,65.8,59.3,28.61,SSW,203,2.0,2.9,80,0.00,,,0.00,WSDL version 420,2013-03-22 12:19:00,
2013-03-22 07:24:00,65.8,59.3,28.61,SSW,210,1.6,3.1,79,0.00,,,0.00,WSDL version 420,2013-03-22 12:24:00,
2013-03-22 07:29:00,65.7,59.1,28.61,SSW,200,1.6,4.3,79,0.00,,,0.00,WSDL version 420,2013-03-22 12:29:00,
2013-03-22 07:34:00,65.7,59.0,28.61,SSW,205,1.2,4.3,79,0.00,,,0.00,WSDL version 420,2013-03-22 12:34:00,
2013-03-22 07:39:00,65.7,59.0,28.64,SSW,211,0.8,2.9,79,0.00,,,0.00,WSDL version 420,2013-03-22 12:39:00,
2013-03-22 07:44:00,65.7,59.2,28.64,SW,228,1.5,2.7,80,0.00,,,0.00,WSDL version 420,2013-03-22 12:44:00,
2013-03-22 07:49:00,65.7,59.3,28.64,East,101,1.1,2.7,80,0.00,,,0.00,WSDL version 420,2013-03-22 12:49:00,
2013-03-22 07:54:00,65.7,59.1,28.64,WSW,245,0.9,2.0,79,0.00,,,0.00,WSDL version 420,2013-03-22 12:54:00,
2013-03-22 07:59:00,65.6,58.9,28.64,SSW,203,0.6,2.0,79,0.00,,,0.00,WSDL version 420,2013-03-22 12:59:00,
2013-03-22 08:04:00,65.6,58.9,28.64,SSE,165,1.1,2.7,79,0.00,,,0.00,WSDL version 420,2013-03-22 13:04:00,
2013-03-22 08:09:00,65.7,59.3,28.64,South,177,1.1,2.7,80,0.00,,,0.00,WSDL version 420,2013-03-22 13:09:00,
2013-03-22 08:14:00,65.7,59.3,28.64,South,188,1.1,2.2,80,0.00,,,0.00,WSDL version 420,2013-03-22 13:14:00,
2013-03-22 08:19:00,65.7,59.3,28.64,SW,214,0.1,2.2,80,0.00,,,0.00,WSDL version 420,2013-03-22 13:19:00,
2013-03-22 08:24:00,65.8,59.4,28.64,SSW,203,1.0,2.2,80,0.00,,,0.00,WSDL version 420,2013-03-22 13:24:00,
2013-03-22 08:29:00,66.0,59.7,28.64,SSW,208,0.1,2.2,79,0.00,,,0.00,WSDL version 420,2013-03-22 13:29:00,
2013-03-22 08:34:00,66.2,59.8,28.64,SSW,205,1.2,2.2,80,0.00,,,0.00,WSDL version 420,2013-03-22 13:34:00,
2013-03-22 08:39:00,66.5,60.1,28.64,SSW,210,1.2,2.5,80,0.00,,,0.00,WSDL version 420,2013-03-22 13:39:00,
2013-03-22 08:44:00,66.7,60.1,28.64,West,259,1.2,2.9,80,0.00,,,0.00,WSDL version 420,2013-03-22 13:44:00,
2013-03-22 08:49:00,67.1,60.8,28.64,SW,233,1.0,2.9,80,0.00,,,0.00,WSDL version 420,2013-03-22 13:49:00,
2013-03-22 08:54:00,67.4,60.8,28.64,SSW,208,1.5,2.7,79,0.00,,,0.00,WSDL version 420,2013-03-22 13:54:00,
2013-03-22 08:59:00,67.6,60.9,28.64,SW,225,1.0,2.7,79,0.00,,,0.00,WSDL version 420,2013-03-22 13:59:00,
2013-03-22 09:04:00,67.9,61.0,28.64,WSW,253,0.2,2.7,78,0.00,,,0.00,WSDL version 420,2013-03-22 14:04:00,
2013-03-22 09:09:00,68.4,61.1,28.64,WSW,238,1.7,3.6,77,0.00,,,0.00,WSDL version 420,2013-03-22 14:09:00,
2013-03-22 09:14:00,69.1,61.4,28.64,South,190,1.8,3.6,76,0.00,,,0.00,WSDL version 420,2013-03-22 14:14:00,
2013-03-22 09:19:00,69.5,61.4,28.64,SSW,193,1.6,3.4,75,0.00,,,0.00,WSDL version 420,2013-03-22 14:19:00,
2013-03-22 09:24:00,70.1,61.1,28.64,SW,218,1.3,3.6,72,0.00,,,0.00,WSDL version 420,2013-03-22 14:24:00,
2013-03-22 09:29:00,70.6,60.8,28.64,SSW,199,1.9,3.6,71,0.00,,,0.00,WSDL version 420,2013-03-22 14:29:00,
2013-03-22 09:34:00,71.1,61.2,28.64,WSW,258,1.4,2.9,70,0.00,,,0.00,WSDL version 420,2013-03-22 14:34:00,
2013-03-22 09:39:00,71.6,60.6,28.67,SW,236,1.6,4.0,68,0.00,,,0.00,WSDL version 420,2013-03-22 14:39:00,
2013-03-22 09:44:00,72.0,60.2,28.67,SW,215,2.5,4.0,66,0.00,,,0.00,WSDL version 420,2013-03-22 14:44:00,
2013-03-22 09:49:00,72.8,60.1,28.67,WNW,303,1.6,4.7,64,0.00,,,0.00,WSDL version 420,2013-03-22 14:49:00,
2013-03-22 09:54:00,73.7,60.5,28.67,South,172,1.8,4.7,64,0.00,,,0.00,WSDL version 420,2013-03-22 14:54:00,
2013-03-22 09:59:00,74.0,60.2,28.67,WSW,248,1.8,4.5,62,0.00,,,0.00,WSDL version 420,2013-03-22 14:59:00,
2013-03-22 10:04:00,73.0,59.5,28.67,SSW,210,1.3,4.5,63,0.00,,,0.00,WSDL version 420,2013-03-22 15:04:00,
2013-03-22 10:09:00,72.5,59.4,28.67,West,275,1.8,3.8,63,0.00,,,0.00,WSDL version 420,2013-03-22 15:09:00,
2013-03-22 10:14:00,72.3,59.0,28.67,West,267,1.2,3.8,63,0.00,,,0.00,WSDL version 420,2013-03-22 15:14:00,
2013-03-22 10:19:00,72.3,59.2,28.67,NW,308,1.6,3.8,64,0.00,,,0.00,WSDL version 420,2013-03-22 15:19:00,
2013-03-22 10:24:00,72.4,59.5,28.67,West,270,1.2,4.0,63,0.00,,,0.00,WSDL version 420,2013-03-22 15:24:00,
2013-03-22 10:29:00,72.5,59.2,28.67,NW,321,1.1,4.0,63,0.00,,,0.00,WSDL version 420,2013-03-22 15:29:00,
2013-03-22 10:34:00,72.6,59.7,28.67,WNW,298,0.6,2.7,64,0.00,,,0.00,WSDL version 420,2013-03-22 15:34:00,
2013-03-22 10:39:00,73.9,60.3,28.67,WNW,287,1.6,3.6,62,0.00,,,0.00,WSDL version 420,2013-03-22 15:39:00,
2013-03-22 10:44:00,74.1,60.1,28.67,West,265,1.4,3.6,61,0.00,,,0.00,WSDL version 420,2013-03-22 15:44:00,
2013-03-22 10:49:00,74.6,60.3,28.67,NW,318,1.1,2.5,61,0.00,,,0.00,WSDL version 420,2013-03-22 15:49:00,
2013-03-22 10:54:00,74.4,59.8,28.70,West,280,1.3,2.7,59,0.00,,,0.00,WSDL version 420,2013-03-22 15:54:00,
2013-03-22 10:59:00,73.9,59.2,28.70,SSW,211,0.8,2.7,60,0.00,,,0.00,WSDL version 420,2013-03-22 15:59:00,
2013-03-22 11:04:00,74.8,59.9,28.70,WNW,298,0.8,2.9,59,0.00,,,0.00,WSDL version 420,2013-03-22 16:04:00,
2013-03-22 11:09:00,75.2,59.4,28.70,NNW,348,0.9,2.9,57,0.00,,,0.00,WSDL version 420,2013-03-22 16:09:00,
2013-03-22 11:14:00,75.1,59.1,28.70,NW,315,0.7,2.9,58,0.00,,,0.00,WSDL version 420,2013-03-22 16:14:00,
2013-03-22 11:19:00,74.8,59.1,28.70,NW,323,1.7,2.9,58,0.00,,,0.00,WSDL version 420,2013-03-22 16:19:00,
2013-03-22 11:24:00,74.9,58.6,28.70,SSW,209,1.4,3.1,57,0.00,,,0.00,WSDL version 420,2013-03-22 16:24:00,
2013-03-22 11:29:00,74.8,58.6,28.70,NW,323,1.7,3.6,57,0.00,,,0.00,WSDL version 420,2013-03-22 16:29:00,
2013-03-22 11:34:00,74.7,58.5,28.70,NW,315,2.4,3.6,57,0.00,,,0.00,WSDL version 420,2013-03-22 16:34:00,
2013-03-22 11:39:00,74.7,58.4,28.70,NNW,344,1.8,3.6,57,0.00,,,0.00,WSDL version 420,2013-03-22 16:39:00,
2013-03-22 11:44:00,74.6,58.5,28.70,NW,323,2.0,4.3,58,0.00,,,0.00,WSDL version 420,2013-03-22 16:44:00,
2013-03-22 11:49:00,74.5,58.6,28.70,NW,318,1.7,4.3,58,0.00,,,0.00,WSDL version 420,2013-03-22 16:49:00,
2013-03-22 11:54:00,74.8,58.8,28.70,NNW,338,1.6,3.1,57,0.00,,,0.00,WSDL version 420,2013-03-22 16:54:00,
2013-03-22 11:59:00,75.0,58.7,28.70,North,11,1.5,3.8,56,0.00,,,0.00,WSDL version 420,2013-03-22 16:59:00,
2013-03-22 12:04:00,75.3,58.6,28.70,NW,320,1.8,3.8,56,0.00,,,0.00,WSDL version 420,2013-03-22 17:04:00,
2013-03-22 12:09:00,76.6,59.2,28.70,NW,325,2.6,3.8,54,0.00,,,0.00,WSDL version 420,2013-03-22 17:09:00,
2013-03-22 12:14:00,76.6,59.0,28.70,NNW,338,1.5,3.8,54,0.00,,,0.00,WSDL version 420,2013-03-22 17:14:00,
2013-03-22 12:19:00,76.0,58.2,28.70,NNW,345,1.4,2.9,54,0.00,,,0.00,WSDL version 420,2013-03-22 17:19:00,
2013-03-22 12:24:00,76.1,58.1,28.70,North,354,1.3,4.0,53,0.00,,,0.00,WSDL version 420,2013-03-22 17:24:00,
2013-03-22 12:29:00,75.4,56.5,28.70,NW,325,2.7,4.3,52,0.00,,,0.00,WSDL version 420,2013-03-22 17:29:00,
2013-03-22 12:34:00,75.0,55.5,28.70,NNW,340,2.3,4.3,50,0.00,,,0.00,WSDL version 420,2013-03-22 17:34:00,
2013-03-22 12:39:00,76.2,55.1,28.70,NNW,328,3.2,5.4,47,0.00,,,0.00,WSDL version 420,2013-03-22 17:39:00,
2013-03-22 12:44:00,76.1,54.0,28.70,NNW,338,2.7,5.4,46,0.00,,,0.00,WSDL version 420,2013-03-22 17:44:00,
2013-03-22 12:49:00,75.4,52.9,28.70,NNW,329,2.8,4.9,46,0.00,,,0.00,WSDL version 420,2013-03-22 17:49:00,
2013-03-22 12:54:00,74.8,52.5,28.70,NNW,340,2.1,4.3,46,0.00,,,0.00,WSDL version 420,2013-03-22 17:54:00,
2013-03-22 12:59:00,75.2,52.7,28.70,NNW,347,2.9,3.8,45,0.00,,,0.00,WSDL version 420,2013-03-22 17:59:00,
2013-03-22 13:04:00,75.5,52.4,28.70,North,353,1.7,3.8,44,0.00,,,0.00,WSDL version 420,2013-03-22 18:04:00,
2013-03-22 13:09:00,75.7,52.5,28.67,North,357,2.0,3.6,44,0.00,,,0.00,WSDL version 420,2013-03-22 18:09:00,
2013-03-22 13:14:00,75.9,52.7,28.67,NNW,338,2.9,4.3,45,0.00,,,0.00,WSDL version 420,2013-03-22 18:14:00,
2013-03-22 13:19:00,76.0,52.8,28.67,North,353,2.3,4.3,44,0.00,,,0.00,WSDL version 420,2013-03-22 18:19:00,
2013-03-22 13:24:00,75.7,52.3,28.67,NNW,346,2.3,4.0,44,0.00,,,0.00,WSDL version 420,2013-03-22 18:24:00,
2013-03-22 13:29:00,75.5,52.0,28.67,NNW,340,2.3,3.8,44,0.00,,,0.00,WSDL version 420,2013-03-22 18:29:00,
2013-03-22 13:34:00,75.3,51.9,28.67,North,6,2.6,3.8,44,0.00,,,0.00,WSDL version 420,2013-03-22 18:34:00,
2013-03-22 13:39:00,75.7,52.8,28.67,NNW,348,2.3,3.6,45,0.00,,,0.00,WSDL version 420,2013-03-22 18:39:00,
2013-03-22 13:44:00,75.8,52.7,28.67,NNW,338,2.8,3.8,45,0.00,,,0.00,WSDL version 420,2013-03-22 18:44:00,
2013-03-22 13:49:00,75.6,52.3,28.67,NNW,345,1.9,4.0,44,0.00,,,0.00,WSDL version 420,2013-03-22 18:49:00,
2013-03-22 13:54:00,75.7,52.9,28.67,NW,320,2.2,4.9,45,0.00,,,0.00,WSDL version 420,2013-03-22 18:54:00,
2013-03-22 13:59:00,76.0,53.1,28.67,NW,323,2.8,4.9,45,0.00,,,0.00,WSDL version 420,2013-03-22 18:59:00,
2013-03-22 14:04:00,75.8,52.6,28.67,NNW,340,2.1,4.0,45,0.00,,,0.00,WSDL version 420,2013-03-22 19:04:00,
2013-03-22 14:09:00,75.7,52.8,28.67,NW,309,2.3,5.4,45,0.00,,,0.00,WSDL version 420,2013-03-22 19:09:00,
2013-03-22 14:14:00,75.7,52.9,28.67,NW,325,2.9,5.4,45,0.00,,,0.00,WSDL version 420,2013-03-22 19:14:00,
2013-03-22 14:19:00,75.8,53.0,28.67,NNW,329,2.8,3.8,45,0.00,,,0.00,WSDL version 420,2013-03-22 19:19:00,
2013-03-22 14:24:00,75.9,52.8,28.67,NNE,17,2.5,3.8,44,0.00,,,0.00,WSDL version 420,2013-03-22 19:24:00,
2013-03-22 14:29:00,75.8,52.8,28.67,NNW,338,2.9,3.6,45,0.00,,,0.00,WSDL version 420,2013-03-22 19:29:00,
2013-03-22 14:34:00,75.9,52.9,28.67,NNW,338,2.8,3.6,45,0.00,,,0.00,WSDL version 420,2013-03-22 19:34:00,
2013-03-22 14:39:00,75.9,52.9,28.67,NW,323,1.7,3.6,45,0.00,,,0.00,WSDL version 420,2013-03-22 19:39:00,
2013-03-22 14:44:00,75.9,52.6,28.67,NNE,17,1.5,3.4,44,0.00,,,0.00,WSDL version 420,2013-03-22 19:44:00,
2013-03-22 14:49:00,76.0,52.8,28.67,NNW,330,1.3,3.4,45,0.00,,,0.00,WSDL version 420,2013-03-22 19:49:00,
2013-03-22 14:54:00,76.2,53.0,28.67,NNW,332,2.4,3.6,44,0.00,,,0.00,WSDL version 420,2013-03-22 19:54:00,
2013-03-22 14:59:00,76.0,52.5,28.67,NE,35,1.2,3.8,44,0.00,,,0.00,WSDL version 420,2013-03-22 19:59:00,
2013-03-22 15:04:00,76.0,52.7,28.67,WNW,285,1.9,3.8,45,0.00,,,0.00,WSDL version 420,2013-03-22 20:04:00,
2013-03-22 15:09:00,76.1,52.7,28.64,NW,321,3.0,4.9,44,0.00,,,0.00,WSDL version 420,2013-03-22 20:09:00,
2013-03-22 15:14:00,76.1,52.8,28.64,NNW,328,2.5,4.9,44,0.00,,,0.00,WSDL version 420,2013-03-22 20:14:00,
2013-03-22 15:19:00,76.2,53.1,28.64,NNE,25,1.7,4.9,45,0.00,,,0.00,WSDL version 420,2013-03-22 20:19:00,
2013-03-22 15:24:00,76.4,53.1,28.64,NW,312,2.1,3.1,45,0.00,,,0.00,WSDL version 420,2013-03-22 20:24:00,
2013-03-22 15:29:00,76.5,53.1,28.64,NNW,329,2.2,3.8,45,0.00,,,0.00,WSDL version 420,2013-03-22 20:29:00,
2013-03-22 15:34:00,76.6,53.0,28.64,NW,320,2.4,3.8,44,0.00,,,0.00,WSDL version 420,2013-03-22 20:34:00,
2013-03-22 15:39:00,76.4,52.7,28.64,NNE,23,0.6,3.8,43,0.00,,,0.00,WSDL version 420,2013-03-22 20:39:00,
2013-03-22 15:44:00,76.1,52.3,28.64,NW,323,2.0,3.8,44,0.00,,,0.00,WSDL version 420,2013-03-22 20:44:00,
2013-03-22 15:49:00,76.3,52.4,28.64,NNW,340,1.5,3.1,43,0.00,,,0.00,WSDL version 420,2013-03-22 20:49:00,
2013-03-22 15:54:00,76.4,52.6,28.64,NNW,346,1.7,3.1,43,0.00,,,0.00,WSDL version 420,2013-03-22 20:54:00,
2013-03-22 15:59:00,76.4,52.5,28.64,North,360,1.2,3.8,44,0.00,,,0.00,WSDL version 420,2013-03-22 20:59:00,
2013-03-22 16:04:00,76.6,53.1,28.64,NW,321,2.4,4.3,44,0.00,,,0.00,WSDL version 420,2013-03-22 21:04:00,
2013-03-22 16:09:00,76.7,52.6,28.64,NW,325,1.7,4.3,43,0.00,,,0.00,WSDL version 420,2013-03-22 21:09:00,
2013-03-22 16:14:00,76.8,52.9,28.64,NNW,335,1.8,2.9,43,0.00,,,0.00,WSDL version 420,2013-03-22 21:14:00,
2013-03-22 16:19:00,76.8,52.6,28.64,NNW,343,1.8,3.1,43,0.00,,,0.00,WSDL version 420,2013-03-22 21:19:00,
2013-03-22 16:24:00,76.5,52.1,28.64,NNW,340,1.1,3.1,43,0.00,,,0.00,WSDL version 420,2013-03-22 21:24:00,
2013-03-22 16:29:00,76.5,52.0,28.64,NNW,345,1.6,2.9,43,0.00,,,0.00,WSDL version 420,2013-03-22 21:29:00,
2013-03-22 16:34:00,76.7,52.5,28.64,NNW,340,1.7,3.4,43,0.00,,,0.00,WSDL version 420,2013-03-22 21:34:00,
2013-03-22 16:39:00,76.9,52.3,28.64,NNW,329,1.3,3.4,42,0.00,,,0.00,WSDL version 420,2013-03-22 21:39:00,
2013-03-22 16:44:00,76.9,52.1,28.64,NNE,18,1.7,3.1,42,0.00,,,0.00,WSDL version 420,2013-03-22 21:44:00,
2013-03-22 16:49:00,77.1,52.2,28.64,North,349,1.3,2.7,42,0.00,,,0.00,WSDL version 420,2013-03-22 21:49:00,
2013-03-22 16:54:00,77.1,51.6,28.64,NNE,23,1.8,3.1,41,0.00,,,0.00,WSDL version 420,2013-03-22 21:54:00,
2013-03-22 16:59:00,77.0,51.7,28.64,North,353,1.1,3.1,42,0.00,,,0.00,WSDL version 420,2013-03-22 21:59:00,
2013-03-22 17:04:00,77.2,51.7,28.64,NE,42,1.6,3.1,41,0.00,,,0.00,WSDL version 420,2013-03-22 22:04:00,
2013-03-22 17:09:00,77.2,52.4,28.64,NE,38,1.7,3.1,42,0.00,,,0.00,WSDL version 420,2013-03-22 22:09:00,
2013-03-22 17:14:00,77.3,52.4,28.64,NW,323,1.5,2.7,42,0.00,,,0.00,WSDL version 420,2013-03-22 22:14:00,
2013-03-22 17:19:00,77.3,51.9,28.64,NNW,345,1.4,2.7,41,0.00,,,0.00,WSDL version 420,2013-03-22 22:19:00,
2013-03-22 17:24:00,77.0,52.2,28.64,NNE,13,1.4,2.7,42,0.00,,,0.00,WSDL version 420,2013-03-22 22:24:00,
2013-03-22 17:29:00,76.8,52.0,28.64,NNW,346,1.2,2.7,42,0.00,,,0.00,WSDL version 420,2013-03-22 22:29:00,
2013-03-22 17:34:00,77.0,52.2,28.64,NNW,338,2.3,3.1,42,0.00,,,0.00,WSDL version 420,2013-03-22 22:34:00,
2013-03-22 17:39:00,77.2,52.2,28.64,NNW,335,1.8,3.1,42,0.00,,,0.00,WSDL version 420,2013-03-22 22:39:00,
2013-03-22 17:44:00,77.0,51.7,28.64,North,355,1.4,3.4,41,0.00,,,0.00,WSDL version 420,2013-03-22 22:44:00,
2013-03-22 17:49:00,76.9,51.9,28.64,NNW,338,1.8,3.4,42,0.00,,,0.00,WSDL version 420,2013-03-22 22:49:00,
2013-03-22 17:54:00,76.8,52.0,28.64,NE,53,1.4,3.4,42,0.00,,,0.00,WSDL version 420,2013-03-22 22:54:00,
2013-03-22 17:59:00,76.6,51.5,28.64,North,8,1.4,3.4,41,0.00,,,0.00,WSDL version 420,2013-03-22 22:59:00,
2013-03-22 18:04:00,76.2,50.8,28.64,NNE,23,2.2,3.6,41,0.00,,,0.00,WSDL version 420,2013-03-22 23:04:00,
2013-03-22 18:09:00,76.0,50.7,28.64,NNE,30,2.0,3.6,41,0.00,,,0.00,WSDL version 420,2013-03-22 23:09:00,
2013-03-22 18:14:00,75.8,50.6,28.64,NE,42,1.7,3.4,42,0.00,,,0.00,WSDL version 420,2013-03-22 23:14:00,
2013-03-22 18:19:00,75.7,50.5,28.64,NNE,23,2.0,3.4,41,0.00,,,0.00,WSDL version 420,2013-03-22 23:19:00,
2013-03-22 18:24:00,75.6,50.3,28.64,NNE,25,1.8,3.1,41,0.00,,,0.00,WSDL version 420,2013-03-22 23:24:00,
2013-03-22 18:29:00,75.4,50.1,28.64,North,8,1.8,3.1,41,0.00,,,0.00,WSDL version 420,2013-03-22 23:29:00,
2013-03-22 18:34:00,75.3,50.0,28.64,NE,34,1.4,4.0,41,0.00,,,0.00,WSDL version 420,2013-03-22 23:34:00,
2013-03-22 18:39:00,75.1,49.8,28.64,NNE,23,1.1,4.0,41,0.00,,,0.00,WSDL version 420,2013-03-22 23:39:00,
2013-03-22 18:44:00,74.9,49.3,28.64,North,3,1.4,3.1,40,0.00,,,0.00,WSDL version 420,2013-03-22 23:44:00,
2013-03-22 18:49:00,74.4,49.1,28.64,North,354,1.2,3.1,41,0.00,,,0.00,WSDL version 420,2013-03-22 23:49:00,
2013-03-22 18:54:00,73.9,48.7,28.64,NNE,23,1.1,3.1,41,0.00,,,0.00,WSDL version 420,2013-03-22 23:54:00,
2013-03-22 18:59:00,73.5,48.5,28.64,NNW,338,0.4,2.9,42,0.00,,,0.00,WSDL version 420,2013-03-22 23:59:00,
2013-03-22 19:04:00,73.0,48.5,28.64,North,350,1.2,2.5,42,0.00,,,0.00,WSDL version 420,2013-03-23 00:04:00,
2013-03-22 19:09:00,72.7,48.3,28.64,North,360,1.5,2.2,42,0.00,,,0.00,WSDL version 420,2013-03-23 00:09:00,
2013-03-22 19:14:00,72.3,48.0,28.64,North,3,1.3,2.7,42,0.00,,,0.00,WSDL version 420,2013-03-23 00:14:00,
2013-03-22 19:19:00,71.8,47.5,28.64,NNE,23,1.2,2.7,42,0.00,,,0.00,WSDL version 420,2013-03-23 00:19:00,
2013-03-22 19:24:00,71.3,47.6,28.67,NE,51,2.2,3.4,43,0.00,,,0.00,WSDL version 420,2013-03-23 00:24:00,
2013-03-22 19:29:00,70.7,47.1,28.67,NNE,20,2.3,4.3,43,0.00,,,0.00,WSDL version 420,2013-03-23 00:29:00,
2013-03-22 19:34:00,69.9,46.4,28.67,NNE,23,2.5,5.6,43,0.00,,,0.00,WSDL version 420,2013-03-23 00:34:00,
2013-03-22 19:39:00,69.2,45.8,28.67,NNE,25,3.3,5.6,43,0.00,,,0.00,WSDL version 420,2013-03-23 00:39:00,
2013-03-22 19:44:00,68.2,44.9,28.67,NNE,25,2.7,5.4,43,0.00,,,0.00,WSDL version 420,2013-03-23 00:44:00,
2013-03-22 19:49:00,67.1,44.0,28.67,NNE,20,2.8,4.0,44,0.00,,,0.00,WSDL version 420,2013-03-23 00:49:00,
2013-03-22 19:54:00,66.3,43.7,28.67,NNE,23,2.3,4.0,44,0.00,,,0.00,WSDL version 420,2013-03-23 00:54:00,
2013-03-22 19:59:00,65.5,43.5,28.67,NNE,23,1.5,3.6,45,0.00,,,0.00,WSDL version 420,2013-03-23 00:59:00,
2013-03-22 20:04:00,64.9,43.1,28.67,NNE,28,1.9,4.0,45,0.00,,,0.00,WSDL version 420,2013-03-23 01:04:00,
2013-03-22 20:09:00,64.1,42.3,28.70,North,11,2.1,4.0,45,0.00,,,0.00,WSDL version 420,2013-03-23 01:09:00,
2013-03-22 20:14:00,63.4,42.1,28.70,North,8,2.4,4.9,46,0.00,,,0.00,WSDL version 420,2013-03-23 01:14:00,
2013-03-22 20:19:00,62.5,41.5,28.70,NNE,20,1.5,4.9,47,0.00,,,0.00,WSDL version 420,2013-03-23 01:19:00,
2013-03-22 20:24:00,61.9,41.5,28.70,NNE,28,1.7,3.4,47,0.00,,,0.00,WSDL version 420,2013-03-23 01:24:00,
2013-03-22 20:29:00,61.2,41.0,28.70,NNE,33,2.5,4.3,48,0.00,,,0.00,WSDL version 420,2013-03-23 01:29:00,
2013-03-22 20:35:00,60.6,41.0,28.70,NNE,23,2.5,4.3,49,0.00,,,0.00,WSDL version 420,2013-03-23 01:35:00,
2013-03-22 20:39:00,60.0,40.8,28.70,NNE,28,2.0,4.0,49,0.00,,,0.00,WSDL version 420,2013-03-23 01:39:00,
2013-03-22 20:44:00,59.6,40.7,28.70,NNE,17,2.2,3.8,50,0.00,,,0.00,WSDL version 420,2013-03-23 01:44:00,
2013-03-22 20:49:00,59.2,40.8,28.70,NE,38,2.7,4.0,51,0.00,,,0.00,WSDL version 420,2013-03-23 01:49:00,
2013-03-22 20:54:00,58.7,40.9,28.70,NNE,33,2.2,4.0,52,0.00,,,0.00,WSDL version 420,2013-03-23 01:54:00,
2013-03-22 20:59:00,58.3,40.8,28.70,NNE,25,2.0,4.0,52,0.00,,,0.00,WSDL version 420,2013-03-23 01:59:00,
2013-03-22 21:04:00,58.0,40.9,28.70,NNE,18,1.5,3.4,53,0.00,,,0.00,WSDL version 420,2013-03-23 02:04:00,
2013-03-22 21:09:00,57.7,40.7,28.73,NNE,20,1.8,3.1,53,0.00,,,0.00,WSDL version 420,2013-03-23 02:09:00,
2013-03-22 21:14:00,57.4,40.9,28.73,NNE,15,1.8,3.1,54,0.00,,,0.00,WSDL version 420,2013-03-23 02:14:00,
2013-03-22 21:19:00,57.2,40.9,28.73,NNE,17,2.2,3.1,55,0.00,,,0.00,WSDL version 420,2013-03-23 02:19:00,
2013-03-22 21:24:00,56.8,40.9,28.73,NE,35,1.2,3.1,55,0.00,,,0.00,WSDL version 420,2013-03-23 02:24:00,
2013-03-22 21:29:00,56.7,41.0,28.73,North,5,2.0,2.9,56,0.00,,,0.00,WSDL version 420,2013-03-23 02:29:00,
2013-03-22 21:34:00,56.5,41.0,28.73,NNE,17,2.4,4.3,56,0.00,,,0.00,WSDL version 420,2013-03-23 02:34:00,
2013-03-22 21:39:00,56.2,40.7,28.73,NNE,25,2.1,4.3,56,0.00,,,0.00,WSDL version 420,2013-03-23 02:39:00,
2013-03-22 21:44:00,55.9,40.5,28.73,North,360,1.3,3.4,57,0.00,,,0.00,WSDL version 420,2013-03-23 02:44:00,
2013-03-22 21:49:00,55.7,40.7,28.73,North,3,0.6,2.9,57,0.00,,,0.00,WSDL version 420,2013-03-23 02:49:00,
2013-03-22 21:54:00,55.5,40.6,28.73,NNE,14,1.3,3.1,58,0.00,,,0.00,WSDL version 420,2013-03-23 02:54:00,
2013-03-22 21:59:00,55.2,40.7,28.73,NNE,15,1.8,3.1,58,0.00,,,0.00,WSDL version 420,2013-03-23 02:59:00,
2013-03-22 22:04:00,55.1,40.6,28.73,NNE,20,1.3,2.9,58,0.00,,,0.00,WSDL version 420,2013-03-23 03:04:00,
2013-03-22 22:09:00,54.9,40.4,28.73,NE,35,1.4,2.7,58,0.00,,,0.00,WSDL version 420,2013-03-23 03:09:00,
2013-03-22 22:14:00,54.8,40.3,28.73,NNE,23,1.0,2.5,58,0.00,,,0.00,WSDL version 420,2013-03-23 03:14:00,
2013-03-22 22:19:00,54.7,40.2,28.73,NNE,23,0.0,2.2,58,0.00,,,0.00,WSDL version 420,2013-03-23 03:19:00,
2013-03-22 22:24:00,54.7,40.2,28.76,North,5,0.5,2.2,58,0.00,,,0.00,WSDL version 420,2013-03-23 03:24:00,
2013-03-22 22:29:00,54.5,40.1,28.76,North,8,0.7,2.5,58,0.00,,,0.00,WSDL version 420,2013-03-23 03:29:00,
2013-03-22 22:34:00,54.4,40.0,28.76,NNE,23,1.0,2.5,58,0.00,,,0.00,WSDL version 420,2013-03-23 03:34:00,
2013-03-22 22:39:00,54.2,40.1,28.76,NE,40,1.5,2.5,59,0.00,,,0.00,WSDL version 420,2013-03-23 03:39:00,
2013-03-22 22:44:00,54.0,40.0,28.76,NE,39,1.2,2.5,59,0.00,,,0.00,WSDL version 420,2013-03-23 03:44:00,
2013-03-22 22:49:00,54.0,40.0,28.76,NNE,28,0.3,2.5,59,0.00,,,0.00,WSDL version 420,2013-03-23 03:49:00,
2013-03-22 22:59:00,53.6,40.1,28.76,NNE,33,1.0,3.4,60,0.00,,,0.00,WSDL version 420,2013-03-23 03:59:00,
2013-03-22 23:04:00,53.5,40.3,28.76,NNE,31,0.9,2.2,61,0.00,,,0.00,WSDL version 420,2013-03-23 04:04:00,
2013-03-22 23:09:00,53.4,40.3,28.76,NE,38,1.4,2.7,61,0.00,,,0.00,WSDL version 420,2013-03-23 04:09:00,
2013-03-22 23:14:00,53.2,40.2,28.76,NNE,31,1.6,2.9,62,0.00,,,0.00,WSDL version 420,2013-03-23 04:14:00,
2013-03-22 23:19:00,53.1,40.4,28.76,NE,35,1.3,2.9,62,0.00,,,0.00,WSDL version 420,2013-03-23 04:19:00,
2013-03-22 23:24:00,53.1,40.8,28.76,NNE,23,1.7,2.9,63,0.00,,,0.00,WSDL version 420,2013-03-23 04:24:00,
2013-03-22 23:29:00,52.9,40.6,28.76,NNE,17,1.3,2.9,63,0.00,,,0.00,WSDL version 420,2013-03-23 04:29:00,
2013-03-22 23:34:00,52.8,40.9,28.76,NNE,33,1.3,3.6,64,0.00,,,0.00,WSDL version 420,2013-03-23 04:34:00,
2013-03-22 23:39:00,52.8,40.8,28.76,NNE,23,0.9,3.6,64,0.00,,,0.00,WSDL version 420,2013-03-23 04:39:00,
2013-03-22 23:44:00,52.7,40.9,28.76,NNE,33,1.1,2.7,64,0.00,,,0.00,WSDL version 420,2013-03-23 04:44:00,
2013-03-22 23:49:00,52.5,40.7,28.76,NNE,28,0.5,3.8,64,0.00,,,0.00,WSDL version 420,2013-03-23 04:49:00,
2013-03-22 23:54:00,52.4,40.6,28.76,NNE,23,1.4,3.8,64,0.00,,,0.00,WSDL version 420,2013-03-23 04:54:00,
2013-03-22 23:59:00,52.2,40.4,28.76,NNE,23,0.4,2.7,64,0.00,,,0.00,WSDL version 420,2013-03-23 04:59:00,